Plymouth, MA

1:26 AM EST on February 23, 2017 (GMT -0500)
Plymouth Municipal

Weather History for KPYM - March, 2013

Change the Weather History Date:

Tuesday, March 12, 2013

  Actual Average Record
Temperature  
Mean Temperature 48 °F -  
Max Temperature 55 °F 46 °F 70 °F (2012)
Min Temperature 42 °F 24 °F 9 °F (1984)
Degree Days  
Heating Degree Days 16    
Moisture  
Dew Point 47 °F    
Average Humidity 86    
Maximum Humidity 94    
Minimum Humidity 75    
Precipitation  
Precipitation 1.11 in - - ()
Sea Level Pressure  
Sea Level Pressure 29.95 in    
Wind  
Wind Speed 7 mph (South)    
Max Wind Speed 18 mph    
Max Gust Speed 30 mph    
Visibility 7 miles    
Events Rain    
Averages and records for this station are not official NWS values.
T = Trace of Precipitation, MM = Missing Value Source: NWS Daily Summary

Daily Weather History Graph

Daily Weather History Graph

Search for Another Location

Airport or City:

Trip Planner

Search our weather history database for the weather conditions in past years. The results will help you decide how hot, cold, wet, or windy it might be!

Date:

Astronomy

Mar. 12, 2013 Rise Set
Actual Time 6:59 AM EDT 6:46 PM EDT
Civil Twilight 6:31 AM EDT 7:14 PM EDT
Nautical Twilight 5:59 AM EDT 7:46 PM EDT
Astronomical Twilight 5:26 AM EDT 8:19 PM EDT
Moon 7:02 AM EDT (3/12) 8:00 PM EDT (3/12)
Length of Visible Light 12h 42m
Length of Day
11h 46m
New Moon, 1% of the Moon is Illuminated
Mar 12
New Moon
Mar 19
First Quarter
Mar 27
Full
Apr 3
Last Quarter
Apr 10
New

Hourly Weather History & Observations

Time (EDT) Temp. Windchill Dew Point Humidity Pressure Visibility Wind Dir Wind Speed Gust Speed Precip Events Conditions
12:52 AM 44.1 °F 41.5 °F 39.0 °F 82% 30.17 in 10.0 mi Variable 4.6 mph - N/A   Mostly Cloudy
1:39 AM 42.8 °F 41.1 °F 39.2 °F 87% 30.18 in 10.0 mi SW 3.5 mph - N/A   Scattered Clouds
1:52 AM 43.0 °F 41.3 °F 39.0 °F 86% 30.18 in 10.0 mi Variable 3.5 mph - N/A   Scattered Clouds
2:52 AM 44.1 °F 40.8 °F 39.9 °F 85% 30.14 in 10.0 mi South 5.8 mph - N/A   Clear
3:52 AM 45.0 °F 41.8 °F 41.0 °F 86% 30.11 in 10.0 mi South 5.8 mph - N/A   Partly Cloudy
4:52 AM 46.9 °F - 43.0 °F 86% 30.09 in 10.0 mi Variable 4.6 mph - N/A   Clear
5:14 AM 46.4 °F 42.9 °F 42.8 °F 87% 30.09 in 10.0 mi South 6.9 mph - N/A   Partly Cloudy
5:32 AM 46.4 °F 43.5 °F 42.8 °F 87% 30.10 in 10.0 mi South 5.8 mph - N/A   Mostly Cloudy
5:52 AM 48.0 °F - 44.1 °F 86% 30.09 in 10.0 mi South 6.9 mph - N/A   Mostly Cloudy
6:18 AM 48.2 °F - 44.6 °F 87% 30.08 in 10.0 mi South 4.6 mph - N/A   Scattered Clouds
6:52 AM 48.0 °F - 45.0 °F 89% 30.09 in 10.0 mi SSW 4.6 mph - N/A   Partly Cloudy
7:52 AM 50.0 °F - 45.0 °F 83% 30.08 in 10.0 mi Variable 5.8 mph - N/A   Clear
8:22 AM 48.2 °F - 44.6 °F 87% 30.07 in 10.0 mi SSE 8.1 mph - N/A   Scattered Clouds
8:52 AM 50.0 °F - 45.0 °F 83% 30.08 in 10.0 mi SSE 13.8 mph 25.3 mph N/A   Overcast
9:52 AM 50.0 °F - 46.0 °F 86% 30.08 in 10.0 mi Variable 6.9 mph 19.6 mph N/A   Overcast
10:52 AM 52.0 °F - 46.9 °F 83% 30.05 in 10.0 mi South 9.2 mph 19.6 mph N/A   Mostly Cloudy
11:37 AM 53.6 °F - 46.4 °F 77% 30.03 in 10.0 mi South 8.1 mph - N/A   Overcast
11:52 AM 53.1 °F - 46.9 °F 80% 30.03 in 10.0 mi Variable 5.8 mph - N/A   Overcast
12:52 PM 55.0 °F - 48.0 °F 77% 30.01 in 10.0 mi South 8.1 mph - N/A   Overcast
1:52 PM 55.9 °F - 48.0 °F 75% 29.98 in 10.0 mi South 12.7 mph 21.9 mph N/A   Overcast
2:52 PM 54.0 °F - 46.9 °F 77% 29.95 in 10.0 mi SSE 10.4 mph 19.6 mph N/A   Overcast
3:52 PM 53.1 °F - 46.9 °F 80% 29.93 in 8.0 mi South 8.1 mph 20.7 mph 0.00 in Rain Light Rain
4:52 PM 52.0 °F - 48.0 °F 86% 29.90 in 5.0 mi SSE 9.2 mph 17.3 mph 0.02 in Rain Light Rain
5:19 PM 51.8 °F - 48.2 °F 88% 29.88 in 4.0 mi SSE 9.2 mph - 0.01 in Rain Light Rain
5:52 PM 52.0 °F - 48.9 °F 89% 29.87 in 4.0 mi SSE 8.1 mph 18.4 mph 0.05 in Rain Light Rain
6:04 PM 51.8 °F - 48.2 °F 88% 29.85 in 4.0 mi SSE 10.4 mph 19.6 mph 0.01 in Rain Light Rain
6:52 PM 53.1 °F - 48.9 °F 86% 29.83 in 6.0 mi South 12.7 mph 19.6 mph 0.06 in Rain Light Rain
7:26 PM 53.6 °F - 50.0 °F 88% 29.82 in 5.0 mi South 10.4 mph 21.9 mph 0.05 in Rain Light Rain
7:44 PM 53.6 °F - 50.0 °F 88% 29.80 in 5.0 mi South 12.7 mph 21.9 mph 0.09 in Rain Light Rain
7:52 PM 54.0 °F - 50.0 °F 86% 29.81 in 5.0 mi South 10.4 mph 24.2 mph 0.11 in Rain Light Rain
8:52 PM 54.0 °F - 51.1 °F 90% 29.78 in 2.5 mi South 10.4 mph 25.3 mph 0.18 in Rain Rain
9:07 PM 55.4 °F - 51.8 °F 88% 29.77 in 3.0 mi South 16.1 mph 27.6 mph 0.04 in Rain Light Rain
9:52 PM 54.0 °F - 51.1 °F 90% 29.77 in 3.0 mi South 18.4 mph 29.9 mph 0.15 in Rain Rain
10:19 PM 53.6 °F - 51.8 °F 94% 29.78 in 1.8 mi SW 11.5 mph 29.9 mph 0.11 in Rain Heavy Rain
10:26 PM 53.6 °F - 51.8 °F 94% 29.78 in 3.0 mi SW 16.1 mph 23.0 mph 0.13 in Rain Rain
10:34 PM 53.6 °F - 51.8 °F 94% 29.78 in 2.5 mi SSW 11.5 mph 24.2 mph 0.20 in Rain Rain
10:52 PM 54.0 °F - 51.1 °F 90% 29.77 in 2.0 mi SSW 12.7 mph 21.9 mph 0.37 in Rain Heavy Rain
11:05 PM 53.6 °F - 51.8 °F 94% 29.76 in 3.0 mi South 9.2 mph 18.4 mph 0.05 in Rain Rain
11:25 PM 53.6 °F - 51.8 °F 94% 29.76 in 6.0 mi South 10.4 mph 19.6 mph 0.11 in Rain Light Rain
11:35 PM 53.6 °F - 50.0 °F 88% 29.76 in 5.0 mi SSW 11.5 mph 24.2 mph 0.14 in Rain Rain
11:52 PM 54.0 °F - 51.1 °F 90% 29.75 in 4.0 mi South 8.1 mph - 0.17 in Rain Rain